Theta_e
302 303 303 303 303 304 304 304 305 305 306 303 298 301 294 292 288 303 304 310 309 301 292 295 294 291 295 299 297 299 296 296 297 296 298 295 298 297 296 295 293 295 294 294 292 292 289 291 289 292 293 294 297 297 297 298 298 299 295 297 294 293 289 287 288 292 291 292 292 291 290 293 294 294 294 294 292 293 291 289 289 287 287 284 286 281 287
302 302 302 302 303 303 303 304 305 305 305 303 301 296 292 292 292 295 304 308 307 297 285 286 289 292 296 295 295 299 297 296 294 295 296 295 295 294 295 295 297 295 297 295 292 294 287 292 292 291 296 294 296 297 297 298 297 297 295 293 297 289 288 289 286 285 287 289 292 292 293 293 292 292 295 294 295 293 289 286 287 286 287 287 286 281 287
303 302 302 302 302 303 303 304 304 304 305 306 302 292 294 293 296 295 298 304 301 291 294 291 290 291 291 292 291 293 295 298 297 296 295 298 296 296 293 296 298 296 298 295 297 297 293 288 295 295 295 295 295 295 298 298 297 299 301 296 299 290 289 287 283 280 279 278 280 283 286 288 291 292 293 294 293 293 288 286 287 284 288 288 286 286 293
303 303 303 302 301 301 302 303 304 304 304 305 301 297 294 288 282 290 293 295 296 294 295 292 293 290 290 289 291 293 291 296 298 299 297 298 297 297 298 299 299 296 295 293 293 293 297 293 290 294 293 296 295 294 293 296 299 297 296 295 297 287 289 290 288 286 285 287 290 294 295 291 287 289 290 292 294 295 292 291 288 285 288 287 289 290 292
303 303 303 303 301 301 301 303 303 303 304 304 300 298 293 293 285 287 283 291 290 289 292 291 292 290 293 286 291 289 291 293 294 299 293 298 297 296 296 295 293 293 294 293 292 294 293 295 293 292 294 294 295 294 296 296 296 294 295 295 292 287 288 290 291 290 291 294 294 296 295 291 291 290 290 292 292 291 289 288 287 292 288 284 292 293 289
303 303 303 303 302 302 302 302 303 303 302 303 299 290 293 283 288 291 292 287 283 285 285 290 290 292 294 290 293 290 290 291 289 295 297 298 298 293 295 295 295 295 293 294 290 292 292 293 289 294 295 295 296 295 294 296 297 294 294 296 293 288 287 291 292 290 293 294 294 295 293 294 294 293 293 291 292 290 287 288 292 293 288 286 292 294 291
303 302 303 302 302 302 302 302 302 303 302 302 298 288 292 292 291 291 295 286 289 289 291 291 289 289 291 290 291 289 289 288 291 292 293 294 294 296 288 292 294 295 296 294 291 292 287 288 293 291 291 292 293 291 294 296 295 294 293 294 290 290 287 290 292 290 292 293 294 295 293 291 292 292 293 294 293 291 291 291 293 293 291 294 294 294 294
303 303 303 302 302 302 302 302 302 302 301 301 294 292 289 285 286 285 291 290 288 289 290 289 289 286 290 285 288 290 290 288 292 294 293 289 292 297 291 292 295 295 295 295 291 293 294 293 290 295 294 290 294 293 294 294 293 292 292 292 293 291 287 292 291 288 288 292 294 294 293 292 289 291 291 292 293 293 292 293 293 294 293 295 294 293 293
304 304 303 303 302 302 302 301 302 302 302 295 291 292 294 295 294 295 288 284 287 288 288 288 287 286 288 286 288 289 290 290 293 292 296 293 291 293 291 294 294 296 295 294 294 297 296 297 296 298 297 291 297 293 294 297 292 291 289 290 290 290 287 289 289 285 285 290 290 291 292 288 287 287 290 290 290 288 290 289 293 292 290 292 292 290 291
303 303 303 302 302 302 302 302 302 302 301 296 294 289 296 295 296 296 293 284 288 286 288 287 287 282 287 289 289 288 289 291 293 288 294 295 296 296 295 296 294 293 293 292 294 298 299 299 300 300 300 301 300 300 299 299 296 289 290 294 291 290 288 286 286 284 284 289 291 289 288 286 284 285 289 292 292 292 293 294 294 294 295 290 288 290 296
304 303 302 303 303 302 302 302 302 302 300 294 292 291 294 291 290 290 292 282 285 286 286 285 284 286 288 289 288 290 290 291 292 286 288 294 294 297 297 294 292 291 292 295 300 300 299 300 299 300 299 298 298 298 299 300 300 297 293 288 289 290 288 287 289 283 285 287 287 288 285 278 280 293 296 296 293 293 290 290 292 294 295 293 296 296 299
304 303 303 304 303 303 302 302 302 301 300 298 298 294 296 297 295 291 286 280 281 286 284 282 284 286 286 288 289 288 288 289 290 293 289 292 292 293 295 294 293 286 296 299 300 300 302 302 301 300 299 298 297 298 298 296 297 299 298 295 289 288 288 287 288 284 284 287 286 283 277 280 291 297 298 298 298 297 294 294 295 296 296 296 295 296 297
302 303 303 303 302 302 302 302 302 301 301 300 298 293 297 298 293 289 287 283 280 283 281 282 286 287 287 288 287 288 290 289 289 289 290 289 289 291 294 293 292 294 299 296 297 295 290 288 291 291 291 294 295 296 295 295 295 298 297 298 295 289 288 289 287 286 287 285 284 277 278 288 292 296 296 298 298 297 296 293 296 296 296 297 295 296 297
302 302 302 303 303 302 302 301 302 301 301 300 296 296 297 296 290 289 287 283 281 285 285 285 284 283 284 284 286 287 287 286 287 288 286 290 288 289 292 294 296 300 301 299 295 293 287 288 285 286 286 288 287 286 289 293 295 295 295 296 297 294 292 289 285 289 281 284 284 283 289 288 289 290 291 294 292 293 291 287 292 297 298 297 297 297 298
301 302 302 303 304 302 302 302 302 301 301 302 298 297 296 295 295 292 291 288 280 283 284 279 283 284 285 284 286 283 283 283 284 284 287 290 288 290 292 296 298 299 300 295 291 291 286 285 281 281 284 283 278 282 289 286 290 295 296 296 297 296 289 290 286 285 287 283 282 283 282 279 286 294 297 300 300 299 299 293 289 298 299 300 299 297 298
302 301 301 303 302 302 301 303 302 301 301 302 298 296 296 296 296 296 292 287 283 277 281 286 287 285 284 283 285 283 282 282 282 283 282 282 285 290 294 295 295 298 297 295 293 288 286 282 279 280 278 282 286 285 282 287 287 289 295 296 296 296 296 292 287 285 286 283 281 281 280 283 291 292 295 298 298 300 297 291 287 296 298 299 300 298 299
302 301 301 302 302 301 302 302 301 302 302 300 296 296 294 297 295 293 290 287 285 279 287 288 288 287 285 282 284 283 285 282 284 280 280 281 283 285 288 291 293 295 295 291 287 286 283 282 282 282 283 285 281 281 287 285 284 286 288 292 290 289 290 289 285 283 285 284 282 280 285 285 291 295 296 296 298 300 294 283 283 295 298 298 298 297 298
302 300 301 302 301 301 302 302 302 302 301 302 297 295 295 298 297 296 291 287 283 282 287 289 287 284 282 284 283 286 288 285 284 283 283 283 283 283 282 286 287 292 297 287 286 283 282 281 279 279 279 286 286 286 278 285 282 284 285 286 285 286 287 287 282 285 284 285 283 286 286 290 292 293 294 293 299 296 286 281 289 296 298 297 298 297 298
301 300 300 301 301 302 301 301 302 302 301 300 298 296 295 297 297 296 291 287 285 280 287 290 292 288 290 292 288 289 288 288 286 284 282 283 284 285 284 285 290 286 290 285 286 283 281 281 286 283 280 283 286 280 287 283 282 288 287 284 284 285 286 286 287 284 283 285 283 283 287 291 293 295 293 294 292 285 285 293 297 299 296 295 297 297 298
299 302 301 300 301 301 300 302 302 301 301 302 297 293 295 298 298 296 291 285 286 283 288 287 289 286 291 288 286 286 285 287 288 285 283 280 284 286 287 283 288 288 286 287 282 285 282 279 282 285 281 282 284 288 285 284 288 284 282 287 285 286 285 283 284 286 286 285 282 281 278 288 297 295 292 293 289 291 298 298 292 290 293 293 292 295 297
299 300 301 300 302 300 301 301 301 301 301 301 298 294 291 297 297 297 296 292 286 282 284 291 291 290 291 290 291 291 289 285 287 285 287 287 289 287 278 279 285 287 282 285 279 281 283 281 283 282 285 285 285 285 279 284 285 287 287 287 287 292 284 284 286 290 283 283 280 281 288 291 295 298 291 294 295 299 295 295 296 294 289 291 294 294 296
299 300 300 300 301 300 302 301 300 300 302 302 299 295 290 293 295 297 297 296 288 284 287 289 288 290 294 294 294 294 293 292 293 293 288 286 286 287 286 285 280 283 286 287 283 284 285 285 286 283 282 283 288 282 284 282 279 285 285 286 282 290 287 287 284 287 284 283 286 289 290 291 292 292 292 291 292 292 290 291 292 294 295 290 292 294 295
299 301 300 300 302 300 302 300 300 301 300 300 297 292 290 293 293 297 295 289 291 293 290 289 291 292 293 292 292 293 294 295 295 293 293 288 285 288 286 285 285 290 288 289 285 285 285 285 280 285 283 284 282 282 283 284 281 284 282 288 287 290 287 287 285 284 289 289 287 290 291 291 291 293 293 292 292 293 290 289 289 292 290 287 289 291 290
299 298 300 300 299 300 300 300 300 300 300 300 298 292 291 293 294 292 289 290 287 284 287 289 286 284 286 287 291 290 293 292 294 295 296 294 285 284 288 289 291 287 285 288 291 287 286 285 284 286 280 284 286 280 278 279 281 285 284 284 285 288 288 287 284 286 285 280 289 288 290 292 291 292 293 293 290 290 289 289 290 289 287 286 287 287 287
299 298 300 300 300 301 301 300 301 301 301 301 297 295 296 293 293 291 287 282 283 282 278 282 284 289 291 293 295 288 292 294 296 294 293 290 291 287 285 289 291 289 287 289 289 288 287 283 283 283 278 285 286 279 286 282 280 286 282 284 285 283 289 287 286 286 284 284 289 291 292 292 291 290 290 293 295 293 290 290 289 287 286 286 286 286 286
299 299 299 300 300 300 299 300 300 300 299 299 297 292 291 291 294 294 292 290 287 285 279 278 282 287 287 289 288 292 293 294 293 292 292 292 293 293 292 290 288 291 290 288 287 286 286 285 285 284 281 281 290 282 281 284 283 287 282 283 289 287 290 283 287 286 287 290 290 290 290 290 291 292 291 292 292 292 293 291 287 287 287 287 287 285 286
298 299 298 300 299 299 300 299 299 299 299 299 296 294 294 294 295 292 289 287 283 279 281 278 282 282 285 287 291 290 291 292 292 291 291 291 291 291 290 290 289 289 288 287 289 287 286 284 284 280 284 283 287 285 286 284 284 282 282 286 289 287 284 289 288 283 283 284 286 289 285 285 289 291 290 290 291 290 291 292 289 287 287 288 287 285 285
298 298 298 299 299 299 299 300 300 300 299 298 295 293 294 292 293 294 294 291 286 279 280 279 280 281 284 282 288 290 287 292 291 290 290 290 290 290 289 288 287 287 286 285 282 283 282 280 280 285 286 285 284 282 287 286 286 283 282 284 288 285 286 287 284 284 283 288 290 290 290 290 291 293 295 294 292 290 290 291 291 290 288 289 288 286 285
297 298 298 298 299 299 299 299 298 298 299 296 291 290 289 290 293 294 294 294 290 279 279 281 281 279 279 282 287 287 288 291 290 290 289 289 289 289 288 288 287 287 287 286 285 285 283 283 287 284 283 287 285 281 284 279 280 279 283 288 289 290 292 290 290 290 290 292 292 291 289 289 291 293 294 293 291 290 290 291 291 291 290 287 287 288 289
298 299 299 298 299 299 298 297 299 300 298 290 288 285 283 284 290 291 295 294 291 287 281 279 276 279 281 280 279 284 286 288 288 289 288 288 287 287 287 288 286 289 286 285 285 281 284 284 285 287 288 290 283 282 281 280 280 281 287 288 290 291 292 293 293 291 289 294 294 293 292 293 294 294 291 289 288 288 289 290 291 290 289 288 287 287 287
298 298 298 299 299 299 298 299 299 298 293 288 287 281 279 277 285 293 295 293 290 288 284 283 278 281 275 277 282 282 285 287 286 287 287 288 287 287 288 288 287 287 283 284 284 284 286 281 284 284 288 289 286 281 280 279 278 281 285 287 289 290 291 291 293 293 293 293 294 290 287 289 290 290 291 291 291 289 288 289 289 288 289 287 287 287 287
297 297 298 298 298 299 299 299 299 296 290 287 285 283 284 286 290 292 295 292 291 286 281 278 277 276 274 279 278 282 284 285 285 284 285 287 285 287 286 287 285 288 286 284 285 284 282 284 284 283 284 289 288 281 282 280 278 279 286 287 289 290 291 291 291 292 292 293 290 288 289 291 292 289 291 294 290 290 289 290 289 287 285 286 284 283 283
297 297 297 297 297 297 297 298 297 293 288 292 296 294 295 296 296 296 295 290 288 283 284 279 274 276 274 273 273 277 282 283 282 283 281 287 284 286 283 286 286 286 289 285 281 280 284 284 284 282 285 290 283 281 280 279 280 285 286 287 288 289 289 290 291 290 290 290 290 288 288 290 291 290 288 289 289 288 288 288 285 283 283 281 281 282 281
297 297 297 297 298 298 298 297 297 293 292 289 285 287 292 297 296 296 293 289 284 281 280 278 273 272 273 273 274 278 284 280 277 281 277 282 283 284 281 284 285 281 285 282 284 283 282 282 282 283 285 282 285 280 277 280 285 285 286 288 288 288 289 288 286 286 287 288 289 290 291 289 284 284 286 286 287 285 284 284 282 282 282 283 283 284 283
297 296 297 298 297 297 298 296 290 287 284 284 285 287 293 297 296 295 291 287 279 278 278 275 276 271 269 269 269 274 280 281 278 280 278 279 283 281 282 279 283 278 281 288 282 281 281 281 283 280 278 283 279 276 279 282 284 286 286 287 288 286 286 285 287 287 287 286 285 286 286 284 284 286 288 288 286 283 282 281 282 284 282 283 283 282 281
297 297 296 297 297 296 291 289 286 284 282 283 284 292 297 297 296 291 288 285 284 279 278 277 277 274 273 268 268 272 282 279 279 278 279 280 281 285 284 282 277 281 285 282 278 282 279 284 281 276 282 278 276 279 281 284 283 284 284 280 269 268 271 272 272 271 274 281 283 284 284 283 283 285 286 285 284 282 281 281 281 281 283 284 283 281 280
296 297 297 293 289 286 282 282 286 285 283 288 292 295 293 290 286 286 283 282 283 282 278 277 273 273 274 272 270 271 278 274 280 278 280 277 277 282 281 279 275 281 276 277 279 278 282 288 281 277 278 275 278 277 267 265 264 263 264 263 264 264 264 266 266 266 270 277 280 281 282 282 282 283 284 284 284 283 281 280 281 281 280 282 282 280 280
296 293 287 285 283 278 277 281 282 287 295 293 292 287 283 283 281 281 281 276 280 283 276 276 274 271 269 273 271 279 278 273 277 275 276 280 278 275 280 279 278 279 271 275 277 284 279 276 278 277 277 282 270 261 262 261 263 262 261 261 261 262 262 263 263 264 269 276 281 278 275 277 279 281 282 283 283 282 282 283 284 283 283 284 283 281 280
291 286 284 281 279 276 278 281 290 293 288 286 284 279 277 277 276 274 276 278 279 274 277 277 274 272 274 273 273 281 278 275 272 270 272 278 276 272 277 272 279 278 273 273 275 283 274 273 274 275 276 280 275 261 258 261 260 260 259 259 260 260 261 261 263 262 261 264 264 262 264 267 269 271 272 274 280 283 282 281 282 282 282 282 281 280 280
283 281 280 278 275 279 286 291 293 289 286 279 277 278 272 273 275 270 277 272 271 274 278 273 275 272 275 275 275 275 282 276 272 271 271 272 280 272 272 271 275 273 267 269 272 277 274 271 274 274 274 277 269 259 258 258 258 258 258 258 259 259 260 260 261 262 262 261 262 262 263 263 262 263 264 266 268 273 280 281 279 278 277 279 278 279 278
281 279 279 277 280 283 284 284 281 278 277 276 274 273 272 269 268 269 272 268 266 268 272 274 274 272 274 272 274 275 280 279 273 271 271 270 277 276 269 268 277 268 268 268 274 271 270 267 271 271 275 264 257 257 256 257 257 258 257 257 258 258 258 258 259 260 261 260 260 261 260 260 259 259 260 260 261 264 270 275 277 276 275 275 276 276 273
282 281 281 284 283 284 283 280 277 276 274 275 273 269 270 269 269 267 267 267 269 271 271 275 273 274 273 276 275 275 273 272 275 276 272 269 278 271 266 267 268 266 264 270 271 269 270 267 268 270 264 255 257 255 255 254 256 255 256 256 257 257 257 257 257 258 259 260 260 260 259 259 258 258 258 257 258 260 263 266 270 271 270 269 270 270 271
290 288 286 280 280 278 277 275 275 275 271 269 268 266 267 266 268 268 266 269 264 267 270 271 273 281 278 276 273 273 275 280 277 273 269 268 275 274 269 266 264 262 269 272 272 270 266 265 265 267 253 253 253 253 254 254 254 255 255 256 256 257 257 256 257 257 258 259 259 259 259 258 258 258 258 257 257 259 261 261 261 264 265 266 267 267 268
285 281 277 274 276 275 276 268 276 272 268 267 268 264 265 265 266 263 261 266 266 268 271 273 274 275 272 275 275 275 275 279 280 270 270 271 271 270 272 267 268 270 271 268 268 267 268 267 266 257 253 253 252 253 252 253 253 253 254 255 255 256 257 257 257 257 257 258 258 258 258 257 258 258 258 257 257 256 257 259 260 261 263 264 264 264 265
277 274 273 272 271 275 272 266 269 267 265 266 269 262 265 265 267 266 269 267 269 272 269 270 275 273 272 271 272 274 278 272 277 274 270 272 268 270 269 268 269 268 268 267 264 265 263 267 255 250 253 251 253 252 252 253 253 252 252 253 254 255 255 255 255 255 256 256 257 257 257 257 256 257 257 257 257 257 257 257 258 260 261 262 262 262 262
273 272 271 270 268 270 267 263 263 262 265 268 265 265 266 266 268 267 260 258 266 269 271 267 269 271 270 269 273 273 273 271 272 272 271 268 267 266 270 267 267 266 265 264 263 264 269 264 252 253 252 251 251 251 251 252 253 253 251 251 252 254 254 255 255 255 255 256 256 256 257 257 256 256 256 256 256 256 256 257 258 258 259 260 260 260 260
273 270 267 269 268 267 265 261 262 262 261 257 258 257 262 262 259 260 257 258 261 262 264 264 270 272 272 270 270 270 269 269 270 272 269 264 266 267 269 266 263 263 262 261 261 264 264 255 252 252 251 251 250 251 251 251 252 251 251 252 252 253 254 254 254 254 255 255 255 255 256 256 256 255 255 256 256 256 256 257 257 257 257 257 257 257 257
271 271 268 266 265 267 265 260 258 258 258 258 258 259 259 259 261 260 257 256 257 260 264 269 270 271 271 269 267 269 266 265 268 267 268 269 268 261 262 262 263 265 264 264 267 259 253 252 251 251 251 251 251 250 250 251 251 251 252 252 252 253 253 254 254 254 255 254 254 255 255 255 255 255 254 254 254 255 255 256 256 257 257 256 256 256 256
266 263 264 261 260 259 258 260 261 259 258 259 259 258 259 258 255 255 255 257 257 260 260 264 267 268 266 267 269 270 268 268 266 267 266 262 263 262 261 258 258 260 261 257 258 251 252 252 251 251 250 250 251 251 251 251 251 251 252 252 252 253 253 254 254 254 255 255 254 254 254 254 254 254 254 254 253 253 254 254 255 256 256 256 256 256 256
264 260 256 259 262 260 262 262 263 259 259 258 258 256 256 256 255 254 255 255 256 256 262 267 270 270 265 266 264 263 265 263 266 266 261 261 262 259 259 256 257 262 260 250 250 251 252 252 252 251 251 251 251 251 251 251 252 252 252 253 254 254 254 254 254 254 254 255 255 255 255 255 254 254 253 253 253 253 253 253 253 253 254 255 256 256 255
258 253 248 246 253 257 258 263 262 259 259 257 255 254 254 253 253 254 255 254 254 259 265 266 267 265 265 263 262 263 266 267 266 263 264 262 258 257 261 262 260 254 252 251 252 252 252 252 252 251 251 251 251 251 251 252 252 252 253 253 253 254 254 254 254 255 255 255 255 255 254 254 255 255 255 255 254 254 253 253 253 253 253 253 254 254 254
258 255 251 251 251 250 251 253 252 253 254 253 252 252 254 252 252 253 255 254 255 265 267 264 266 265 264 264 263 261 261 261 260 260 260 257 252 258 258 256 252 249 250 249 250 251 252 252 252 251 251 251 251 251 252 252 252 252 252 253 253 253 253 253 254 254 254 254 255 254 254 255 255 255 255 254 254 253 252 252 253 253 253 253 253 254 253
Wind_Speed
18 18 18 17 16 14 14 12 10 9 8 4 3 2 5 5 2 2 0 6 15 12 8 7 8 10 10 1 4 4 2 6 7 11 6 8 3 3 6 7 7 6 9 12 7 9 4 5 6 3 5 11 11 1 3 5 8 4 2 6 1 5 2 2 7 3 1 0 1 1 2 0 6 9 5 1 11 11 7 2 2 5 5 3 4 5 7
20 19 18 17 17 17 16 14 12 11 11 4 5 5 4 5 3 1 2 2 11 11 11 12 14 12 8 7 8 6 6 7 6 10 10 9 5 7 4 1 6 3 4 5 11 11 6 7 11 10 8 7 4 3 5 11 7 9 7 7 7 5 2 7 5 3 1 2 2 3 2 2 7 8 6 7 2 1 1 4 1 3 8 7 8 11 8
20 20 20 19 17 17 17 15 13 13 14 6 6 6 4 4 1 2 1 2 3 11 5 6 10 11 13 10 13 11 6 5 11 11 9 5 3 6 6 9 6 6 3 5 3 8 13 3 9 12 5 6 2 3 4 9 8 7 4 5 5 4 5 9 8 10 10 8 9 12 10 11 6 3 6 13 17 14 6 8 6 10 6 14 11 11 13
23 21 21 20 19 18 19 16 15 16 15 11 6 4 5 5 4 3 1 1 2 3 3 2 6 11 12 10 12 12 11 3 4 10 9 11 5 8 2 5 6 9 8 5 5 6 7 10 3 6 4 3 0 0 1 7 8 8 5 3 6 1 1 6 10 13 12 11 9 3 9 7 7 11 15 12 15 14 12 3 8 12 11 12 11 13 18
23 23 22 22 22 21 20 18 18 17 14 13 7 3 2 3 4 6 5 2 3 3 2 5 4 7 12 8 7 14 15 9 2 8 8 10 10 5 7 4 8 7 11 11 10 9 7 7 9 12 9 1 1 1 1 2 7 5 4 2 4 1 3 8 12 14 18 16 18 5 12 12 16 17 14 16 14 14 15 14 16 16 11 17 11 19 20
25 25 24 23 21 20 21 19 18 18 16 16 8 7 6 7 5 3 3 2 8 11 9 10 10 5 10 8 7 10 14 14 10 7 10 6 11 9 2 9 13 11 14 10 9 10 11 9 10 11 12 9 4 4 2 3 3 6 2 1 4 5 8 10 9 14 15 17 19 8 6 11 11 15 14 14 15 15 16 18 19 17 14 18 18 21 21
27 26 25 24 23 23 22 21 20 19 18 15 7 7 6 3 2 2 1 3 3 8 2 11 10 10 8 4 9 11 13 16 15 8 7 9 6 14 10 13 15 15 13 12 10 11 10 10 12 8 5 9 7 5 4 7 4 7 5 3 3 3 8 12 12 13 13 17 18 16 9 8 7 7 12 11 13 18 21 21 23 25 21 18 18 20 23
27 26 26 25 25 23 24 22 22 21 20 14 11 9 8 9 6 5 1 1 2 1 4 7 10 11 11 6 8 7 12 14 10 8 10 10 12 10 17 15 13 14 14 15 15 14 13 9 11 9 12 6 8 8 10 3 4 0 5 3 4 8 6 8 10 9 15 20 19 16 15 8 9 7 4 7 9 15 20 19 21 24 22 17 16 23 24
25 26 27 27 26 26 25 23 22 21 17 10 11 8 5 0 3 1 5 7 5 2 2 6 9 7 11 10 10 8 12 12 8 7 8 12 9 12 19 17 12 10 15 16 16 14 14 13 16 10 11 12 10 9 2 12 6 4 1 2 1 4 3 4 1 7 12 18 19 20 11 1 5 7 11 13 14 15 16 15 13 11 16 19 20 18 17
28 28 28 27 27 27 26 24 24 23 22 8 7 10 6 1 2 1 2 6 9 7 3 2 5 11 10 12 14 8 10 7 5 6 5 8 10 10 12 13 11 14 13 16 18 16 14 13 12 10 8 10 9 11 10 9 10 5 8 7 5 6 4 5 4 10 13 19 14 10 7 6 11 16 21 23 21 15 5 9 12 20 21 16 15 17 20
28 29 30 28 27 28 27 26 25 26 16 12 10 7 9 9 6 2 2 7 6 7 8 7 10 6 5 5 3 5 5 8 10 12 4 6 7 5 6 6 6 8 14 7 3 4 3 3 5 4 6 7 7 3 6 9 8 9 7 2 2 10 9 7 5 8 7 16 9 4 4 13 13 19 27 20 19 18 18 19 19 23 18 15 16 15 13
28 29 30 28 28 28 28 27 27 28 20 10 6 6 6 7 5 3 5 12 12 7 11 10 12 5 6 6 10 8 11 11 9 8 11 3 3 4 4 10 9 5 1 5 6 6 4 5 4 4 7 13 14 12 11 16 13 10 11 12 5 10 9 8 5 4 5 8 2 5 14 14 17 10 7 13 15 17 23 26 27 19 17 16 17 18 20
30 31 30 29 30 31 30 28 29 28 24 10 10 8 7 9 6 5 3 5 9 10 13 12 9 6 4 7 4 7 3 4 5 3 1 1 1 2 3 3 7 4 4 5 3 6 5 5 6 7 10 9 12 15 18 16 16 16 14 14 11 9 10 6 5 3 3 4 7 10 9 4 3 3 9 5 14 19 17 19 21 22 21 19 18 25 28
32 32 32 33 30 29 30 31 30 28 29 17 11 10 8 10 9 8 8 5 6 5 3 3 4 8 11 12 12 5 4 3 1 0 3 3 5 7 5 5 4 1 2 3 2 1 3 1 7 4 8 5 4 8 11 17 18 16 17 15 15 16 10 9 6 8 9 6 11 16 6 14 9 8 7 10 11 13 15 16 20 20 18 18 21 24 25
30 30 31 32 28 30 30 29 28 29 28 20 11 10 10 9 10 8 5 6 12 8 8 13 11 14 12 6 8 6 5 3 3 6 5 3 6 8 8 5 3 3 3 2 0 2 4 3 6 4 3 8 8 6 4 7 6 21 21 18 15 15 15 9 10 7 10 12 12 9 12 15 11 18 20 13 12 12 10 12 16 19 17 19 21 24 23
28 32 34 32 30 31 30 28 30 30 29 23 11 10 10 13 9 6 6 6 7 11 13 16 9 3 5 7 10 8 6 4 4 3 5 2 5 3 4 3 3 6 4 3 2 2 2 5 6 6 6 5 3 4 5 3 3 5 22 22 21 17 17 13 14 7 11 12 12 10 13 11 8 16 14 6 9 9 6 7 13 15 22 19 16 19 22
29 31 33 29 30 32 30 30 30 30 28 27 13 12 12 13 10 9 7 4 7 10 2 10 5 7 6 2 3 8 7 8 6 6 5 7 6 3 1 2 1 7 9 5 4 4 4 8 6 7 6 2 3 4 3 3 3 1 2 16 19 17 14 12 16 15 14 12 12 12 7 10 9 13 10 8 8 11 8 12 9 17 28 15 15 20 20
27 32 31 28 32 33 32 32 31 30 30 28 13 12 9 13 12 10 7 9 10 12 5 8 15 9 11 8 7 3 5 3 2 1 4 1 1 2 3 1 2 4 7 9 5 8 9 8 11 9 11 5 2 3 7 2 3 4 7 10 11 12 10 13 17 10 14 18 11 6 8 4 4 11 3 3 9 13 13 17 9 17 15 8 14 16 19
30 31 30 30 33 29 31 32 31 29 28 29 15 10 10 14 14 12 8 8 9 10 7 11 9 11 6 3 5 5 4 8 6 5 2 3 4 6 5 3 3 3 5 8 6 7 8 7 4 6 10 7 4 9 1 10 9 3 4 4 4 7 5 4 13 14 12 11 14 11 9 5 3 12 11 11 6 12 14 8 9 14 9 9 11 17 17
30 28 29 31 32 30 32 30 29 31 31 28 17 11 10 14 14 16 11 12 8 11 5 11 11 15 7 9 8 6 2 3 5 7 6 8 2 4 1 6 2 1 4 3 10 5 10 12 8 4 10 9 7 2 8 7 3 6 1 2 5 5 8 8 10 7 11 7 10 11 12 3 18 7 4 2 11 10 11 9 4 2 5 6 7 9 12
30 30 30 32 31 32 32 29 29 29 29 30 21 10 7 11 15 15 11 9 7 8 9 4 4 12 9 10 12 11 11 9 7 7 5 6 2 3 6 6 6 6 6 6 8 10 4 6 9 7 2 5 4 3 5 4 5 3 6 6 6 5 7 3 7 6 8 11 12 6 1 4 9 5 11 6 15 11 6 7 6 4 5 6 6 8 10
28 28 30 32 31 31 30 29 31 30 29 29 22 10 9 9 10 10 10 8 7 6 0 4 3 6 9 8 7 8 10 10 8 6 6 5 2 5 1 1 1 0 1 1 0 2 2 1 4 6 8 6 3 10 2 8 9 2 1 1 6 7 8 0 5 1 2 3 4 10 15 8 3 4 9 10 13 14 13 11 6 7 5 3 4 7 7
28 29 30 31 30 30 31 32 31 29 29 29 20 11 11 11 10 11 10 8 4 2 2 0 1 1 2 4 2 3 3 2 4 5 5 7 3 3 6 5 6 3 1 3 3 3 1 2 3 3 6 5 6 6 10 10 10 6 10 8 8 1 5 4 4 5 3 7 9 9 7 8 13 10 4 5 10 12 8 9 11 9 4 5 5 8 6
26 30 30 28 29 31 32 32 33 31 32 33 20 12 9 10 12 9 6 5 6 8 4 2 2 9 11 12 6 2 3 4 6 6 2 7 8 7 5 7 2 2 1 3 3 5 1 2 3 3 7 4 2 5 6 9 8 6 10 7 1 4 3 3 5 2 4 7 2 5 10 12 12 13 14 9 7 7 5 7 6 8 6 6 5 6 7
25 30 31 31 31 31 31 31 30 27 27 27 19 10 9 7 9 12 12 9 7 8 7 6 14 11 4 1 3 4 8 5 5 7 7 6 11 12 11 3 4 5 4 2 1 1 1 3 4 4 7 4 5 8 5 6 5 0 9 4 4 6 6 8 6 7 9 9 13 12 10 9 8 10 11 12 10 7 7 8 6 6 5 5 6 4 4
26 27 30 31 30 32 33 32 31 30 31 29 18 12 13 13 12 11 10 5 3 2 9 9 4 4 3 6 9 10 6 9 9 9 11 12 13 14 12 2 3 2 3 2 0 1 2 3 3 6 5 6 5 6 9 6 8 4 3 9 6 5 4 2 2 4 4 5 9 12 12 10 13 13 10 10 8 9 11 8 7 6 7 7 5 4 4
26 28 32 30 30 29 29 30 30 30 31 29 16 12 10 9 12 14 13 10 9 2 5 9 2 1 1 10 4 4 4 7 7 8 8 7 8 9 8 9 9 4 3 2 2 2 2 5 6 9 7 7 2 3 2 6 2 5 7 9 3 4 8 9 10 10 8 7 8 1 5 9 9 6 7 7 9 9 11 9 7 7 8 7 6 4 3
27 29 28 28 30 31 30 32 30 29 30 25 13 10 9 10 12 13 10 10 12 3 4 2 2 3 2 3 4 5 3 7 8 9 9 9 9 8 9 11 6 6 6 6 5 5 5 7 9 5 4 1 5 8 6 8 6 8 8 12 10 9 11 10 10 9 11 9 9 6 7 9 13 16 11 8 7 7 10 12 13 11 10 8 7 5 3
27 29 29 28 28 29 29 29 31 31 29 17 9 8 4 2 6 9 11 9 6 4 4 2 1 1 4 3 4 2 2 6 8 8 8 8 10 10 11 10 9 9 7 5 4 4 5 6 4 6 4 2 3 6 6 9 9 12 9 12 12 11 13 16 15 13 13 14 15 9 6 10 15 15 12 11 6 6 10 12 11 11 10 8 7 6 4
27 26 27 29 29 28 27 29 29 28 23 12 9 4 4 2 3 8 10 10 8 5 3 4 4 3 2 2 2 0 2 4 5 7 9 9 9 9 9 9 8 9 5 4 5 5 6 4 3 4 6 3 5 2 7 6 11 9 10 13 12 11 12 13 12 11 12 13 14 10 10 13 15 13 8 8 6 5 7 11 12 11 10 8 9 8 5
26 28 29 28 27 28 29 28 28 26 21 12 10 5 5 4 7 10 12 8 6 7 2 2 3 1 1 1 1 4 5 6 6 6 8 8 8 8 7 7 4 5 4 6 5 6 3 4 3 3 5 10 5 3 6 8 10 9 10 13 13 9 8 10 12 13 14 15 13 4 3 8 10 8 11 11 11 9 8 10 9 7 9 5 8 7 4
25 27 29 30 29 29 29 29 28 23 13 12 13 8 5 5 9 16 15 10 7 4 4 7 2 1 1 1 2 1 2 3 3 3 2 5 4 5 5 9 6 7 7 5 6 4 5 5 8 5 4 7 10 3 8 11 13 12 11 14 11 8 6 10 9 10 11 11 8 11 13 15 13 11 13 7 2 3 9 11 7 5 6 4 2 2 3
25 27 29 28 28 29 29 27 28 17 11 10 10 8 6 16 26 23 14 11 5 1 2 3 4 2 1 5 1 1 4 3 1 2 2 3 4 5 4 5 6 5 7 5 4 4 3 5 6 10 10 6 4 2 10 12 12 12 15 13 13 10 9 12 13 10 9 7 7 11 15 16 10 6 7 8 8 7 7 8 5 2 2 4 5 4 3
24 24 24 26 27 28 28 26 24 18 11 5 2 4 4 19 22 26 16 8 4 1 1 4 4 3 2 2 3 2 5 4 3 4 2 1 2 4 3 4 6 5 6 9 4 2 1 1 6 7 1 3 5 6 10 11 15 16 16 15 11 10 10 11 9 8 8 10 10 11 11 10 6 5 7 9 10 6 4 3 4 6 7 6 7 6 6
27 27 27 27 25 26 26 24 15 9 9 5 1 1 8 21 21 25 18 9 6 1 3 0 2 3 2 1 0 2 2 2 4 6 5 1 1 3 2 2 4 4 4 5 3 5 6 6 2 3 7 3 3 8 8 11 15 14 12 13 7 7 7 10 12 5 7 6 6 9 11 8 7 11 13 11 7 5 6 5 5 6 6 7 7 5 5
26 25 26 26 25 18 10 12 7 7 4 7 4 8 19 23 24 14 8 3 3 4 4 3 5 7 6 6 3 2 3 1 1 2 0 1 2 2 2 4 4 6 0 3 5 6 7 3 3 8 6 8 9 10 10 10 11 12 8 6 9 9 9 10 12 15 13 11 7 6 6 6 9 12 8 7 7 4 5 4 4 5 7 7 7 5 3
25 26 24 19 11 7 4 3 4 3 4 7 12 17 18 14 7 6 4 2 2 2 4 6 6 8 8 6 0 2 4 3 2 3 3 2 3 2 4 3 5 1 2 2 5 8 8 6 6 8 8 12 11 3 10 9 8 7 7 8 9 9 10 10 12 13 15 13 8 6 6 5 8 7 8 9 8 4 3 9 12 10 11 13 9 8 9
26 23 13 8 6 5 3 2 3 10 24 26 20 9 4 4 4 3 2 3 2 2 1 2 4 2 2 4 3 4 5 2 2 3 1 3 3 1 2 3 4 2 4 4 5 6 0 2 7 12 13 8 7 8 8 8 7 6 7 9 10 11 11 10 13 12 11 12 10 6 9 6 7 6 4 8 5 6 9 8 5 6 7 5 6 5 4
21 10 5 2 5 4 5 6 11 23 13 5 4 3 2 1 3 2 4 2 2 1 1 3 5 3 6 4 1 1 2 4 2 0 3 3 3 2 2 2 2 3 3 1 3 5 3 2 1 5 10 10 6 4 5 6 6 4 6 8 9 10 11 11 10 7 6 6 9 8 7 8 10 12 8 9 9 7 7 7 7 5 5 4 2 3 4
6 6 7 5 3 3 8 16 24 12 5 4 3 3 2 1 2 2 1 4 1 1 2 4 2 4 6 10 9 4 2 4 5 4 3 0 0 2 1 1 2 2 2 2 3 2 2 3 2 1 7 4 1 4 6 6 6 6 7 8 10 10 10 10 10 8 9 12 11 10 8 8 9 11 10 7 7 11 10 7 5 5 5 4 2 4 6
3 4 4 5 5 4 6 6 3 4 3 2 2 2 2 2 1 0 2 2 1 2 0 2 2 2 1 1 3 5 0 3 1 2 3 2 1 4 2 1 1 2 2 2 1 3 1 1 3 5 7 2 2 8 9 8 7 8 7 7 9 8 9 11 12 11 12 11 9 8 8 8 9 10 9 9 8 8 10 10 7 5 4 4 4 3 2
2 5 6 8 8 8 4 5 3 3 3 1 3 2 1 1 2 3 1 4 4 2 2 2 5 7 5 5 5 3 0 0 1 1 2 1 2 3 2 1 2 2 3 2 2 0 1 3 2 4 2 4 6 8 9 10 9 11 11 9 8 9 11 12 13 11 9 10 10 10 9 9 10 8 8 9 9 9 8 8 8 5 3 2 2 4 5
27 19 10 7 3 3 1 3 1 2 4 2 3 2 1 3 1 4 2 1 3 2 2 2 0 3 3 2 2 1 2 1 2 0 2 2 0 2 1 0 2 0 4 1 0 1 2 2 3 3 3 4 7 8 9 10 11 10 9 8 8 9 10 12 11 11 11 11 11 10 10 10 10 9 9 8 9 10 6 4 6 7 5 2 2 3 3
9 6 6 2 4 1 1 4 1 3 2 1 4 6 3 3 1 2 2 3 2 0 3 7 6 9 6 1 3 1 1 1 2 2 0 0 2 2 2 3 3 3 3 1 1 3 4 3 1 1 2 6 5 6 10 10 9 9 10 9 11 11 11 10 9 11 12 9 9 10 10 9 10 9 8 8 8 9 10 7 8 8 6 3 3 4 2
5 3 3 2 3 1 2 1 2 3 4 2 2 3 4 9 8 7 6 0 1 6 3 1 6 5 6 2 2 1 1 2 1 3 3 2 1 1 2 3 1 1 1 3 1 2 3 5 2 1 4 8 9 9 9 10 9 8 11 14 11 9 10 10 11 10 9 10 12 12 10 11 9 8 8 8 8 7 7 7 8 7 5 2 3 4 3
5 4 3 5 4 1 2 2 2 1 1 1 3 5 5 3 6 4 2 2 1 2 6 3 3 4 5 0 5 3 2 2 3 2 2 1 3 4 3 0 2 1 0 1 3 7 9 1 2 3 6 7 10 9 9 10 10 9 9 9 10 11 11 11 10 9 9 10 11 10 10 10 9 9 8 8 7 8 7 7 7 6 5 3 5 4 3
4 3 2 1 4 0 2 3 3 1 1 1 1 2 1 4 3 5 3 3 3 2 3 2 1 1 6 2 2 2 1 1 3 2 3 1 2 1 2 1 3 2 3 4 5 6 2 0 2 5 8 8 10 11 12 11 10 10 10 8 9 11 12 11 10 10 11 11 11 10 9 9 10 9 8 7 7 8 8 8 8 7 6 4 4 4 7
4 1 2 3 3 2 3 0 2 4 3 2 1 2 1 1 4 4 4 3 3 3 2 4 6 2 3 2 2 3 2 0 1 2 1 1 1 2 0 0 2 2 2 4 5 0 1 2 4 7 9 9 9 10 10 12 12 11 10 10 11 12 12 12 12 12 11 11 10 9 8 9 8 8 7 7 7 8 9 9 8 6 6 5 6 7 7
5 3 3 3 1 2 3 3 5 5 3 3 4 4 2 6 6 2 4 3 2 0 3 1 4 3 2 0 2 2 1 1 2 3 1 0 2 4 3 3 2 4 4 2 0 1 1 3 4 5 8 9 8 9 10 9 9 10 11 12 12 11 10 11 12 11 10 9 8 8 8 8 7 7 7 7 7 8 9 9 9 7 7 6 6 7 9
6 6 7 5 4 5 2 3 6 4 1 2 2 3 3 6 4 2 3 1 2 2 3 3 2 3 1 2 1 1 1 1 2 0 2 2 3 0 2 1 4 4 1 1 1 1 4 5 6 8 8 7 9 10 10 9 9 10 11 10 9 9 10 11 11 10 9 8 8 8 9 7 6 5 6 6 5 5 7 9 9 9 9 8 7 7 9
4 8 4 4 1 2 1 7 6 6 6 3 2 1 2 2 1 0 4 2 3 1 1 3 2 4 2 3 2 2 2 2 3 2 3 3 1 2 3 4 2 1 2 1 1 3 4 5 6 6 8 10 10 9 7 9 10 11 10 9 9 9 10 10 10 9 9 8 8 7 7 6 6 5 5 4 3 4 7 9 10 8 8 8 8 8 9
4 5 2 1 4 3 3 2 6 6 4 3 2 2 2 2 1 2 4 2 2 5 5 2 3 3 3 4 5 2 1 2 1 1 1 2 2 3 3 1 1 2 1 1 2 3 4 4 4 7 9 10 10 8 7 8 11 10 8 8 9 9 9 9 9 8 8 7 7 7 6 6 6 5 5 5 5 5 7 7 7 7 7 6 8 9 10
Wind_Direction
223 226 231 234 235 234 230 222 219 231 156 154 177 199 172 193 230 86 12 194 174 168 192 186 196 215 230 178 67 109 170 180 177 174 187 196 168 151 207 193 177 199 197 201 195 171 220 174 214 275 261 266 238 58 168 123 175 91 45 31 318 94 180 203 247 52 343 315 90 135 359 290 259 254 255 201 219 210 229 294 104 210 138 212 221 236 279
226 224 225 229 230 230 231 222 216 216 179 171 151 155 193 178 237 313 355 175 203 182 187 197 204 217 225 201 220 195 215 161 151 200 182 189 162 190 170 341 237 239 181 171 203 171 232 196 212 249 239 264 30 163 141 168 180 189 195 201 151 166 222 217 216 223 179 199 143 244 145 199 227 228 198 206 252 36 97 89 112 256 197 208 208 237 239
224 224 221 222 226 228 228 226 219 215 192 162 178 178 173 158 235 282 295 41 233 209 213 208 197 213 213 198 215 212 206 197 193 188 191 178 170 156 213 199 167 208 168 200 161 181 200 220 211 234 220 247 90 339 180 189 210 222 40 73 186 196 175 175 204 218 223 211 202 211 199 203 211 255 213 196 200 191 128 222 184 236 202 208 219 240 248
218 218 221 218 217 222 226 228 220 216 201 178 171 199 159 183 180 207 258 122 174 283 86 351 219 208 204 209 224 219 221 183 225 198 209 186 186 205 116 169 164 192 182 189 197 207 219 202 208 180 229 213 135 204 244 211 205 225 93 125 134 176 289 213 203 217 231 238 252 49 98 111 188 219 211 206 208 197 200 210 211 216 229 228 216 229 249
221 217 216 218 215 211 217 224 219 216 199 170 180 198 197 214 205 171 192 102 258 242 186 212 195 216 190 207 188 218 221 210 175 194 226 190 197 201 201 153 176 203 209 217 225 216 220 229 235 229 236 170 244 197 170 254 273 4 12 221 105 79 254 226 235 236 244 253 256 201 168 178 204 210 214 211 199 199 200 208 222 215 228 247 220 220 234
221 217 215 214 213 214 212 215 220 215 200 174 186 198 187 209 223 208 257 211 190 199 226 207 212 212 187 210 195 216 216 216 220 177 228 184 202 212 170 201 205 189 196 194 222 200 220 201 222 239 244 251 245 299 175 201 215 178 211 220 169 158 232 242 241 250 256 262 268 254 183 220 211 215 212 204 192 190 201 218 230 219 218 232 230 231 234
220 220 217 213 210 208 209 209 215 213 198 171 196 196 206 262 345 251 356 185 277 229 177 183 196 206 194 209 214 215 212 219 214 195 184 212 201 199 226 207 208 213 203 207 225 204 213 221 225 221 222 228 238 249 285 243 164 162 199 145 177 153 233 243 241 260 270 265 262 260 228 241 249 244 236 231 197 197 203 214 218 221 226 231 242 250 247
221 217 216 214 213 210 207 208 209 210 194 180 196 209 194 197 193 191 88 10 11 180 160 163 182 209 199 214 212 212 213 221 201 185 184 203 212 193 224 227 207 208 218 219 226 215 214 212 223 215 226 238 213 242 227 234 24 44 198 158 239 179 231 221 238 250 257 258 259 262 255 241 256 242 240 244 232 216 212 217 223 227 237 241 241 245 252
216 220 216 214 211 208 209 207 207 209 186 186 196 209 204 193 181 278 152 199 205 206 136 167 181 190 202 215 216 204 209 219 197 209 202 207 202 196 218 224 223 210 221 223 232 229 229 222 234 225 207 229 195 207 206 210 216 149 106 59 343 171 262 69 124 234 247 251 248 251 261 176 239 256 241 228 217 221 215 225 226 231 235 237 245 251 254
217 218 217 212 211 210 208 203 205 207 192 194 186 215 182 127 305 107 204 215 196 192 171 158 155 214 200 204 207 195 206 206 177 241 210 229 242 234 226 226 224 230 224 230 228 232 241 250 253 259 263 252 250 220 230 199 197 189 189 171 167 184 175 203 183 227 234 251 241 257 257 273 267 251 244 232 232 224 221 229 233 228 224 232 230 232 236
215 217 216 211 209 209 207 204 201 203 192 201 191 194 181 190 176 115 231 218 211 195 200 209 206 220 179 204 254 181 219 199 198 213 206 188 223 225 215 249 243 242 233 241 13 18 306 300 293 317 289 283 272 291 281 274 241 221 167 187 207 164 182 213 192 239 234 256 258 233 229 231 230 230 234 234 238 234 231 236 226 227 216 227 230 248 255
219 219 215 208 208 207 206 203 202 201 198 197 187 192 180 172 177 129 168 210 216 197 210 211 204 202 178 176 206 205 209 209 205 199 227 161 122 78 172 217 221 242 56 33 9 336 285 237 262 270 265 264 265 262 248 249 244 227 206 219 178 185 187 215 183 223 224 256 130 205 225 231 239 267 276 239 241 234 233 236 240 235 222 229 252 263 261
221 218 213 213 210 207 205 203 202 203 198 174 183 194 172 165 170 184 185 204 217 193 209 221 223 230 168 212 193 207 192 67 62 57 325 174 209 216 178 183 202 232 81 7 15 11 0 280 274 247 256 261 261 258 249 242 242 233 228 222 212 206 196 194 215 197 270 245 216 243 226 228 331 278 248 231 230 233 240 251 249 244 240 233 230 239 243
225 217 215 211 209 206 204 203 202 202 201 180 186 187 184 166 178 189 195 199 222 209 215 257 208 212 211 218 222 187 83 279 356 103 248 208 232 248 243 231 231 257 118 166 93 131 301 242 268 238 236 220 240 238 231 236 226 223 226 226 223 223 213 201 234 177 233 206 229 244 306 298 277 275 233 195 203 214 208 232 247 238 226 224 234 240 242
227 225 217 212 207 207 205 203 202 202 201 179 185 175 179 187 179 187 180 212 225 217 205 218 203 212 206 210 211 229 232 232 256 254 244 252 254 237 239 221 166 146 158 183 78 130 195 263 265 261 214 200 213 232 172 234 209 218 217 213 214 214 214 186 225 212 199 232 246 249 241 240 241 242 252 237 218 225 204 213 250 259 241 227 227 239 248
225 224 218 211 211 209 206 203 202 201 201 183 172 180 184 183 174 152 184 197 202 225 209 219 218 143 192 211 209 214 217 220 220 246 267 250 238 264 254 192 151 140 135 197 210 217 179 226 243 244 247 243 215 247 220 181 227 211 209 213 211 209 213 210 213 226 213 211 223 220 234 238 228 251 251 222 179 183 140 205 244 251 252 237 232 240 246
222 223 218 209 211 208 203 203 203 201 199 186 179 179 192 179 181 175 169 184 205 235 138 199 161 182 201 183 167 213 207 225 179 218 228 233 231 202 243 51 29 178 180 200 209 200 223 241 248 252 267 37 307 249 232 211 223 216 207 206 211 208 215 214 221 212 217 228 226 227 217 250 229 254 249 183 156 134 132 224 220 246 250 227 214 227 239
223 226 220 213 212 207 205 206 202 202 201 188 173 181 182 178 179 161 177 197 210 234 204 162 182 196 206 196 195 74 97 99 134 103 243 239 130 199 242 110 158 275 201 214 173 220 222 231 240 242 252 210 191 312 250 272 228 188 173 182 193 208 213 210 219 209 218 220 243 256 245 233 236 249 214 132 164 155 191 213 206 237 255 217 204 211 220
224 219 218 214 212 207 204 203 198 200 202 193 166 173 185 175 178 175 177 192 200 232 174 186 186 203 200 115 180 171 181 179 155 171 178 235 228 196 152 206 210 196 173 207 192 223 223 226 206 224 247 238 196 245 303 246 248 232 147 155 234 232 226 223 219 221 223 217 228 234 255 211 198 251 196 156 131 221 215 223 237 246 247 221 203 206 212
230 223 218 213 211 206 207 203 201 202 200 189 173 182 173 172 179 180 176 194 197 228 146 174 191 208 180 178 187 184 121 101 184 184 195 219 87 91 146 228 218 151 202 184 219 199 229 231 217 198 231 234 233 150 248 238 287 231 211 237 245 188 209 197 212 220 231 227 236 238 238 132 218 216 27 244 228 236 244 252 313 30 286 230 232 208 214
226 220 217 215 210 209 204 198 200 199 196 190 178 165 161 178 177 186 189 181 183 221 229 210 203 210 197 200 202 195 189 197 175 197 196 229 151 182 231 219 194 179 203 188 216 216 222 238 225 232 225 239 205 222 229 268 248 281 220 215 211 160 237 215 232 209 244 214 219 214 49 345 329 237 238 174 223 252 11 0 280 228 213 261 241 226 222
223 219 214 213 212 206 201 199 201 199 195 190 172 165 167 171 175 182 184 174 197 206 236 175 183 209 214 220 210 204 208 213 206 171 208 218 189 198 261 73 305 135 235 186 58 241 234 247 245 225 220 222 206 242 217 249 241 176 130 72 266 189 211 105 226 89 234 297 319 325 307 271 254 358 313 322 315 319 336 326 298 302 315 39 299 270 275
225 215 214 212 205 206 204 201 198 197 195 190 174 173 177 157 170 170 157 184 221 7 94 57 84 272 289 269 228 223 233 267 183 195 190 232 238 191 227 254 263 198 231 150 224 264 267 277 272 314 293 268 255 269 240 233 265 239 250 170 224 130 131 163 109 247 235 242 234 258 288 303 311 309 231 271 305 306 325 339 322 301 322 328 297 304 315
226 219 208 204 208 204 205 202 197 196 195 193 173 166 171 165 153 134 147 184 184 208 221 174 205 226 212 220 191 219 168 198 198 189 132 199 238 242 220 240 206 31 352 250 202 238 214 216 247 226 240 238 104 246 271 261 250 243 253 242 253 242 154 119 234 192 269 277 233 224 269 289 293 293 300 273 199 242 269 265 231 262 280 286 276 283 292
221 220 211 203 204 204 202 201 196 192 193 182 168 167 137 145 154 154 152 169 174 183 218 177 216 227 206 208 145 212 212 193 149 164 175 193 218 237 243 179 189 227 269 244 128 156 193 224 230 221 246 237 227 265 221 257 287 267 261 260 266 276 181 218 220 223 229 255 262 269 266 267 275 274 281 288 289 259 219 224 252 266 262 243 255 247 258
219 214 213 202 199 203 200 198 194 192 192 185 165 163 168 170 166 157 149 125 96 168 213 237 238 53 134 172 211 217 173 178 186 185 184 196 210 226 241 177 266 96 141 144 332 209 198 230 245 256 252 267 173 243 257 237 267 310 306 287 297 332 353 248 196 230 238 277 280 276 281 278 263 256 238 244 254 270 266 232 230 247 257 254 240 223 223
218 213 210 203 197 197 197 197 196 196 192 176 157 168 166 158 161 165 168 157 126 148 225 236 218 53 149 203 198 94 137 172 171 179 194 197 201 213 215 234 238 203 185 237 211 223 231 248 249 252 235 255 300 237 268 267 195 265 270 255 258 296 262 281 289 277 276 263 272 272 317 307 290 250 233 256 253 237 258 277 257 230 243 243 240 252 275
211 209 208 197 194 194 196 193 191 191 189 168 153 158 155 157 179 181 172 166 172 174 168 171 153 221 80 279 218 185 168 159 167 171 186 190 192 191 207 217 214 213 214 216 226 200 209 219 228 232 261 298 275 255 203 251 253 255 233 251 232 236 248 253 256 263 270 267 256 227 237 257 268 280 286 273 257 231 252 259 257 251 234 226 215 202 234
206 208 200 195 194 192 196 198 192 190 183 154 128 118 122 145 184 190 177 181 141 90 88 105 54 67 177 220 71 157 186 156 162 168 168 175 182 194 200 204 203 209 214 212 221 211 210 224 198 232 209 199 222 256 242 239 229 237 221 234 233 223 230 239 249 258 267 275 279 261 236 257 271 270 268 267 244 222 249 258 256 251 249 225 231 241 229
201 199 196 194 191 186 186 194 191 185 162 127 128 103 142 197 183 207 195 173 156 104 124 145 156 226 15 33 268 140 106 173 167 153 169 175 187 195 203 195 208 211 207 215 203 218 211 233 224 218 222 159 238 262 248 258 261 250 238 248 248 235 224 237 244 243 259 258 260 257 242 254 262 278 290 272 259 205 235 250 251 243 235 217 220 236 243
193 195 194 189 185 187 187 189 191 175 136 147 139 147 146 170 190 189 187 165 150 155 166 139 177 69 16 272 110 202 174 154 172 184 193 193 197 199 202 181 209 166 186 212 226 238 215 220 203 222 196 199 216 241 254 258 260 262 247 249 247 232 205 234 233 231 245 259 269 311 312 262 270 301 272 252 247 219 234 260 263 240 236 214 219 213 230
196 196 192 184 183 179 183 186 183 147 147 155 173 185 189 201 150 158 164 146 139 116 129 151 147 107 239 304 257 301 121 126 113 134 162 164 204 177 176 187 206 189 203 209 217 233 217 224 232 236 223 201 210 258 247 251 250 253 263 258 252 244 206 244 243 235 239 249 288 292 278 271 253 230 262 279 352 248 219 249 261 246 217 215 157 198 206
197 194 189 182 177 179 180 178 166 154 169 138 81 61 95 125 136 148 140 134 125 185 110 117 155 155 134 233 338 303 139 104 91 157 219 185 183 143 192 191 210 210 211 229 211 213 230 218 219 239 234 190 240 252 247 242 250 258 260 265 269 264 250 253 261 262 249 231 188 239 253 260 285 318 300 295 268 253 230 230 210 171 169 195 199 189 180
184 193 187 176 176 177 174 174 159 141 125 129 184 191 166 147 145 144 136 119 108 101 88 135 145 126 188 351 103 180 156 169 181 160 204 178 174 112 184 144 189 199 203 202 224 226 257 167 208 236 225 209 210 243 251 250 253 258 259 260 261 257 251 262 271 268 243 231 220 237 262 278 277 256 275 264 263 258 253 203 159 185 219 221 225 210 174
172 173 174 172 171 169 160 141 130 146 162 164 113 315 154 142 140 144 142 148 127 158 114 236 119 118 95 11 3 224 167 130 171 186 194 158 132 158 145 128 172 181 213 157 244 215 231 217 166 194 222 199 199 230 244 255 253 253 264 265 294 318 278 267 261 269 299 287 238 229 239 249 281 270 256 258 254 219 202 215 206 199 211 230 229 216 187
171 164 165 164 157 147 128 112 123 124 162 175 179 166 153 143 145 145 140 98 119 154 157 180 157 186 160 176 178 242 146 221 84 87 173 105 120 221 189 190 221 210 74 163 222 212 224 138 129 239 212 233 227 222 242 256 269 273 299 349 19 354 336 331 327 321 310 301 274 265 266 261 238 256 264 260 253 235 225 255 257 232 235 232 221 207 216
158 156 140 114 98 89 119 137 127 148 168 117 112 111 101 79 36 61 20 59 25 76 146 148 166 193 173 188 48 267 145 179 146 120 145 138 175 161 164 187 217 189 63 223 220 231 231 171 220 243 229 232 238 38 39 38 32 12 354 341 338 347 333 330 329 318 305 294 284 254 240 261 270 265 268 262 246 217 203 226 222 205 218 225 215 201 205
138 122 114 130 110 94 83 154 175 135 119 115 105 85 10 27 131 107 73 47 281 75 12 90 182 137 19 117 169 197 150 206 62 140 184 204 128 166 214 203 230 167 234 223 227 192 186 182 220 233 245 229 79 64 33 20 25 16 359 345 341 339 331 326 335 340 331 302 277 328 343 304 269 266 279 287 303 267 246 252 255 228 243 245 224 201 162
126 123 92 55 124 150 149 153 146 121 104 82 53 74 67 122 105 92 154 137 102 168 266 150 189 159 156 154 187 320 175 160 115 37 151 222 136 249 134 174 220 140 248 220 267 131 215 229 237 238 248 233 185 31 11 360 17 20 2 345 338 329 330 327 333 338 315 293 313 305 279 301 315 305 329 325 305 275 262 274 280 268 254 270 232 189 188
111 121 131 114 76 114 107 125 125 113 116 77 345 95 100 333 143 183 105 100 90 304 141 206 164 166 189 169 154 188 211 128 148 186 170 318 254 167 221 85 257 113 228 178 235 89 201 243 212 209 254 238 115 41 6 357 343 351 351 345 339 333 327 324 316 314 306 297 292 293 306 296 291 286 296 299 308 301 291 268 254 279 281 264 228 199 208
86 71 78 98 128 103 109 115 49 57 79 90 63 39 93 57 329 109 104 77 104 214 301 140 93 91 54 67 149 160 272 69 13 104 123 149 218 83 70 191 207 92 248 236 261 87 174 142 214 202 243 55 337 349 344 344 338 335 344 336 338 330 331 324 321 321 323 315 312 310 306 297 292 284 280 283 283 279 289 297 284 257 243 233 208 195 85
120 107 111 104 104 112 95 36 51 71 49 27 122 88 97 94 52 37 96 154 192 158 213 178 171 159 190 172 185 114 31 205 144 107 106 250 254 132 209 280 359 159 230 201 96 359 110 228 202 237 77 7 358 347 340 337 338 335 333 340 337 339 331 330 324 324 325 315 312 312 310 311 302 294 299 302 297 290 298 316 320 327 309 325 33 83 126
101 99 91 97 88 58 76 75 341 99 124 101 103 85 22 110 145 148 179 310 338 93 202 10 197 76 26 51 45 340 157 184 137 114 83 200 318 57 114 80 70 197 237 39 108 176 208 224 240 241 48 330 358 328 336 322 321 316 314 321 330 325 333 325 323 319 320 319 318 314 315 313 309 309 316 307 306 313 328 324 325 323 335 346 37 52 65
81 69 65 17 70 297 95 113 194 95 60 52 144 159 167 130 233 71 95 211 187 250 207 146 178 154 174 258 148 150 22 23 113 88 43 329 86 181 156 212 216 248 59 331 137 202 221 231 259 45 350 339 313 327 328 322 315 313 312 323 327 330 329 327 325 330 329 328 319 319 320 313 314 317 336 334 342 334 327 323 338 336 331 356 48 41 28
98 46 67 68 66 240 86 26 341 114 149 192 126 156 166 176 180 174 171 287 92 176 147 47 153 160 137 193 57 357 158 163 304 118 205 122 75 240 152 234 211 44 173 235 264 304 349 250 79 296 343 334 328 324 324 319 316 312 315 319 321 327 329 330 333 329 324 325 325 327 321 325 321 321 331 334 334 335 342 340 330 334 338 3 55 57 23
81 131 114 113 117 28 108 124 48 79 285 150 190 191 161 198 142 161 44 335 95 113 138 159 119 110 105 294 136 174 117 115 116 200 139 92 134 220 211 359 69 138 275 29 225 223 237 221 329 304 335 315 313 311 314 309 318 321 327 317 316 317 321 325 325 325 320 324 325 323 321 320 322 323 324 329 337 341 347 343 345 336 325 6 26 26 16
77 30 86 101 98 128 76 127 219 153 149 75 36 346 21 89 58 88 75 4 86 4 27 318 66 102 125 173 94 15 47 73 156 208 86 93 192 245 23 116 221 181 184 230 233 243 248 196 300 332 313 312 312 316 316 316 317 322 311 299 304 314 322 326 325 328 327 328 325 326 320 323 320 322 320 331 351 357 351 355 359 2 14 21 12 26 44
100 182 105 84 130 132 124 6 103 103 6 63 324 41 103 191 110 75 20 9 323 320 174 125 100 68 46 305 71 150 147 248 95 292 168 191 53 42 51 359 260 263 194 198 229 99 277 324 326 316 317 316 315 312 317 320 321 317 315 314 319 323 328 327 327 327 333 332 328 325 322 320 325 326 331 337 348 360 360 1 3 6 20 29 37 44 55
85 69 89 111 74 72 65 97 108 58 28 24 57 48 55 80 70 55 331 352 16 263 294 115 156 114 147 20 92 118 189 238 130 226 56 49 155 207 152 218 182 260 256 157 172 129 313 338 306 305 310 313 311 311 312 314 314 315 317 321 322 322 324 324 323 323 327 327 327 326 329 330 331 331 337 349 6 2 356 359 9 19 28 39 53 62 70
53 37 24 54 81 28 57 97 77 82 4 6 21 54 53 78 85 45 359 354 315 312 240 226 246 90 124 109 76 9 253 241 171 51 76 211 206 214 79 291 232 198 215 153 245 322 332 328 325 315 314 303 315 320 320 316 316 314 315 315 317 324 325 325 325 329 325 323 324 330 327 330 333 341 348 1 6 7 17 22 15 20 28 29 43 61 70
41 84 111 271 95 151 185 152 158 161 170 177 111 40 19 77 84 72 0 5 299 257 67 124 143 116 101 49 85 107 226 167 112 172 174 206 200 123 181 209 235 124 94 79 308 333 328 324 326 315 317 322 325 323 316 311 315 314 316 318 323 328 328 329 328 326 329 330 336 340 347 346 348 351 346 348 343 27 53 42 32 24 32 41 39 52 69
54 72 75 73 47 49 4 45 46 50 46 47 56 344 17 97 350 315 319 313 291 169 162 171 109 103 98 174 206 188 358 38 70 63 338 271 136 170 211 196 133 124 31 345 321 326 323 312 309 323 323 321 320 311 305 309 316 318 318 322 326 335 340 339 337 338 340 347 350 357 357 2 8 18 34 34 31 35 50 53 36 34 44 57 65 63 71